Pikeville, NC

12:10 AM EST on December 03, 2016 (GMT -0500)
Goldsboro-Wayne Municipal

Weather History for KGWW - February, 2013

Change the Weather History Date:

Tuesday, February 12, 2013

  Actual Average (KGSB) Record (KGSB)
Temperature  
Mean Temperature 56 °F -  
Max Temperature 63 °F 55 °F 77 °F (1999)
Min Temperature 48 °F 35 °F 23 °F (2012)
Degree Days  
Heating Degree Days 10    
Growing Degree Days 6 (Base 50)    
Moisture  
Dew Point 41 °F    
Average Humidity 65    
Maximum Humidity 100    
Minimum Humidity 26    
Precipitation  
Precipitation 0.01 in - - ()
Sea Level Pressure  
Sea Level Pressure 30.00 in    
Wind  
Wind Speed 6 mph (WNW)    
Max Wind Speed 12 mph    
Max Gust Speed 16 mph    
Visibility 10 miles    
Events Rain    
Averages and records for this station are not official NWS values.
T = Trace of Precipitation, MM = Missing Value Source: NWS Daily Summary

Daily Weather History Graph

Daily Weather History Graph

Search for Another Location

Airport or City:

Trip Planner

Search our weather history database for the weather conditions in past years. The results will help you decide how hot, cold, wet, or windy it might be!

Date:

Astronomy

Feb. 12, 2013 Rise Set
Actual Time 7:01 AM EST 5:51 PM EST
Civil Twilight 6:35 AM EST 6:17 PM EST
Nautical Twilight 6:05 AM EST 6:47 PM EST
Astronomical Twilight 5:35 AM EST 7:17 PM EST
Moon 8:04 AM EST (2/12) 8:41 PM EST (2/12)
Length of Visible Light 11h 42m
Length of Day
10h 49m
Waxing Crescent, 7% of the Moon is Illuminated
Feb 12
Waxing Crescent
Feb 17
First Quarter
Feb 25
Full
Mar 4
Last Quarter
Mar 11
New

Hourly Weather History & Observations

Time (EST) Temp. Dew Point Humidity Pressure Visibility Wind Dir Wind Speed Gust Speed Precip Events Conditions
12:15 AM 59.9 °F 56.5 °F 88% 29.95 in 10.0 mi SW 10.4 mph - N/A   Clear
12:35 AM 59.4 °F 55.4 °F 87% 29.95 in 10.0 mi WSW 8.1 mph - N/A   Clear
12:55 AM 59.0 °F 54.7 °F 86% 29.94 in 10.0 mi WSW 10.4 mph 16.1 mph N/A   Clear
1:15 AM 58.5 °F 53.8 °F 84% 29.95 in 10.0 mi WSW 8.1 mph - N/A   Clear
1:35 AM 58.3 °F 53.6 °F 84% 29.95 in 10.0 mi WSW 11.5 mph 16.1 mph N/A   Clear
1:55 AM 58.1 °F 53.4 °F 84% 29.95 in 10.0 mi WSW 10.4 mph - N/A   Clear
2:15 AM 57.6 °F 53.2 °F 85% 29.96 in 10.0 mi SW 10.4 mph - N/A   Clear
2:35 AM 57.2 °F 52.9 °F 85% 29.97 in 10.0 mi WSW 9.2 mph - N/A   Clear
2:55 AM 57.0 °F 52.5 °F 85% 29.97 in 10.0 mi WSW 6.9 mph - N/A   Clear
3:15 AM 56.3 °F 52.2 °F 86% 29.97 in 10.0 mi WSW 8.1 mph - N/A   Clear
3:35 AM 55.9 °F 52.0 °F 87% 29.97 in 10.0 mi WSW 8.1 mph - N/A   Clear
3:55 AM 55.6 °F 51.8 °F 87% 29.97 in 10.0 mi WSW 8.1 mph - N/A   Clear
4:15 AM 55.6 °F 51.6 °F 87% 29.97 in 10.0 mi WSW 8.1 mph - N/A   Clear
4:35 AM 54.7 °F 51.4 °F 89% 29.98 in 10.0 mi WSW 6.9 mph - N/A   Clear
4:55 AM 53.8 °F 51.1 °F 91% 29.98 in 10.0 mi West 5.8 mph - N/A   Clear
5:15 AM 53.6 °F 51.1 °F 91% 29.98 in 10.0 mi West 5.8 mph - N/A   Clear
5:35 AM 52.7 °F 51.1 °F 94% 29.98 in 10.0 mi West 4.6 mph - N/A   Clear
5:55 AM 52.0 °F 50.9 °F 96% 29.99 in 10.0 mi West 5.8 mph - N/A   Clear
6:35 AM 51.4 °F 50.9 °F 98% 30.00 in 10.0 mi West 3.5 mph - N/A   Clear
6:55 AM 51.3 °F 50.9 °F 99% 30.01 in 10.0 mi West 3.5 mph - N/A   Clear
7:15 AM 50.0 °F 49.6 °F 99% 30.01 in 10.0 mi Calm Calm - N/A   Clear
7:35 AM 50.0 °F 50.0 °F 100% 30.04 in 10.0 mi West 3.5 mph - N/A   Clear
7:55 AM 50.4 °F 46.6 °F 87% 30.04 in 10.0 mi WNW 4.6 mph - N/A   Clear
8:15 AM 51.1 °F 43.2 °F 74% 30.04 in 10.0 mi WNW 3.5 mph - N/A   Clear
8:35 AM 51.6 °F 41.2 °F 68% 30.05 in 10.0 mi Calm Calm - N/A   Clear
8:55 AM 52.0 °F 40.3 °F 64% 30.06 in 10.0 mi Calm Calm - N/A   Clear
9:15 AM 53.8 °F 37.4 °F 54% 30.06 in 10.0 mi NW 4.6 mph - N/A   Clear
9:35 AM 53.1 °F 34.0 °F 48% 30.06 in 10.0 mi NW 6.9 mph - N/A   Clear
9:55 AM 53.6 °F 32.5 °F 45% 30.07 in 10.0 mi NW 5.8 mph - N/A   Clear
10:15 AM 54.9 °F 32.0 °F 42% 30.09 in 10.0 mi WNW 4.6 mph - N/A   Clear
10:35 AM 54.7 °F 30.9 °F 40% 30.08 in 10.0 mi WNW 4.6 mph - N/A   Clear
11:15 AM 57.6 °F 31.8 °F 38% 30.07 in 10.0 mi NW 4.6 mph - N/A   Clear
11:35 AM 59.7 °F 29.1 °F 31% 30.08 in 10.0 mi WNW 10.4 mph - N/A   Clear
11:55 AM 59.9 °F 28.0 °F 30% 30.06 in 10.0 mi WNW 11.5 mph - N/A   Clear
12:15 PM 60.6 °F 29.7 °F 31% 30.05 in 10.0 mi WNW 6.9 mph - N/A   Clear
12:35 PM 61.0 °F 27.7 °F 28% 30.05 in 10.0 mi NW 6.9 mph - N/A   Clear
12:55 PM 61.7 °F 28.6 °F 29% 30.03 in 10.0 mi NW 5.8 mph - N/A   Clear
1:15 PM 61.9 °F 27.5 °F 27% 30.02 in 10.0 mi NNW 8.1 mph - N/A   Clear
1:35 PM 61.7 °F 27.0 °F 27% 30.02 in 10.0 mi NW 6.9 mph - N/A   Clear
1:55 PM 62.4 °F 28.9 °F 28% 30.00 in 10.0 mi NW 5.8 mph - N/A   Clear
2:15 PM 62.8 °F 28.6 °F 27% 29.98 in 10.0 mi NW 5.8 mph - N/A   Clear
2:35 PM 63.5 °F 28.6 °F 27% 29.98 in 10.0 mi NNW 3.5 mph - N/A   Clear
2:55 PM 63.5 °F 28.0 °F 26% 29.97 in 10.0 mi NNW 3.5 mph - N/A   Clear
3:15 PM 62.8 °F 28.6 °F 27% 29.98 in 10.0 mi Calm Calm - N/A   Clear
3:35 PM 62.6 °F 28.6 °F 28% 29.98 in 10.0 mi Calm Calm - N/A   Clear
3:55 PM 62.2 °F 29.8 °F 29% 29.98 in 10.0 mi Calm Calm - N/A   Clear
4:15 PM 61.7 °F 30.6 °F 31% 29.98 in 10.0 mi NW 3.5 mph - N/A   Clear
4:35 PM 61.2 °F 31.6 °F 33% 29.97 in 10.0 mi Calm Calm - N/A   Clear
4:55 PM 60.4 °F 31.3 °F 33% 29.98 in 10.0 mi NW 4.6 mph - N/A   Clear
5:15 PM 59.0 °F 36.0 °F 42% 29.97 in 10.0 mi NNW 3.5 mph - N/A   Clear
5:35 PM 56.1 °F 36.9 °F 48% 29.98 in 10.0 mi NNW 3.5 mph - N/A   Clear
5:55 PM 55.6 °F 36.9 °F 49% 29.99 in 10.0 mi Calm Calm - N/A   Clear
6:15 PM 53.2 °F 40.3 °F 61% 29.99 in 10.0 mi Calm Calm - N/A   Clear
6:35 PM 52.5 °F 43.0 °F 70% 30.00 in 10.0 mi Calm Calm - N/A   Clear
7:15 PM 51.1 °F 41.9 °F 71% 29.98 in 10.0 mi Calm Calm - N/A   Clear
7:35 PM 50.9 °F 44.4 °F 78% 29.98 in 10.0 mi Calm Calm - N/A   Clear
7:55 PM 50.0 °F 43.5 °F 78% 29.98 in 10.0 mi Calm Calm - N/A   Clear
8:15 PM 49.3 °F 43.0 °F 79% 29.96 in 10.0 mi Calm Calm - N/A   Clear
8:35 PM 49.1 °F 42.3 °F 77% 29.95 in 10.0 mi Calm Calm - N/A   Clear
9:15 PM 50.2 °F 44.2 °F 80% 29.95 in 10.0 mi Calm Calm - N/A   Mostly Cloudy
9:35 PM 50.9 °F 41.7 °F 71% 29.98 in 10.0 mi Calm Calm - N/A   Overcast
10:15 PM 49.3 °F 44.1 °F 82% 29.98 in 10.0 mi Calm Calm - N/A   Overcast
10:35 PM 49.5 °F 45.1 °F 85% 29.99 in 10.0 mi Calm Calm - N/A   Overcast
10:55 PM 48.9 °F 43.0 °F 80% 29.99 in 10.0 mi Calm Calm - N/A   Overcast
11:15 PM 49.3 °F 44.1 °F 82% 29.98 in 10.0 mi ENE 3.5 mph - N/A   Overcast
11:35 PM 49.3 °F 43.5 °F 81% 29.98 in 10.0 mi Calm Calm - N/A Rain Light Rain
11:55 PM 48.2 °F 45.1 °F 89% 29.97 in 10.0 mi Calm Calm - 0.01 in Rain Light Rain